Dewpoint
-6 -6 2 0 2 -1 -2 -6 -12 -10 -10 -5 -4 1 2 1 -1 4 7 7 8 9 11 11 12 12 12 13 12 13 12 12 12 13 13 13 13 13 13 13 13 13 13 12 12 11 12 12 5
-2 3 1 -0 -1 -1 -5 -10 -11 -9 -2 -1 -1 0 1 2 2 3 5 8 9 10 11 11 12 12 12 12 12 12 11 10 11 11 12 13 13 13 13 13 12 13 13 13 11 12 11 12 8
1 0 -0 0 0 -2 -6 -9 -11 -4 -2 -1 -0 -0 1 3 2 2 1 7 10 10 11 11 11 11 11 11 12 12 10 10 10 11 11 12 11 11 12 12 12 11 11 11 11 10 11 11 11
1 -1 -2 -0 -3 -6 -7 -11 -9 -8 -5 -3 -2 0 2 3 2 2 3 8 9 9 11 11 11 11 11 11 11 11 10 10 11 11 10 10 10 10 10 10 10 10 10 11 11 12 11 11 11
-1 -2 -1 -2 -4 -6 -10 -13 -9 -10 -9 -4 -3 -1 1 2 2 2 5 8 8 8 11 10 10 10 10 10 10 10 10 10 10 11 10 10 10 10 10 10 10 10 10 10 10 10 10 11 11
1 -2 1 0 -2 -6 -9 -11 -13 -12 -12 -9 -3 -2 -1 -1 1 3 5 7 7 10 10 10 10 10 9 10 9 10 10 10 9 9 10 10 9 9 9 9 9 9 9 10 10 10 10 10 11
1 1 -0 -1 -2 -4 -6 -8 -9 -11 -11 -9 -4 -3 -3 -2 -0 4 6 7 8 9 9 9 9 9 9 9 9 9 9 9 9 8 9 9 9 8 7 6 5 3 3 4 7 9 10 10 11
0 2 2 0 -0 -0 -4 -7 -8 -7 -7 -7 -4 -2 -2 -3 -2 3 6 6 7 8 9 9 9 9 8 9 8 8 8 8 9 8 8 8 5 3 2 1 -0 -1 -3 -5 -6 -2 5 9 10
-0 3 2 2 0 -1 -5 -6 -5 -5 -4 -3 -3 -2 -4 -3 -2 3 4 5 8 8 8 8 8 8 8 8 8 7 7 8 8 8 7 4 2 1 -0 -1 -2 -5 -7 -9 -11 -11 -10 -1 8
2 3 2 -2 -3 -3 -4 -5 -5 -3 -3 -4 -3 -2 -4 -4 -2 2 2 4 7 8 8 8 8 8 8 7 7 7 7 7 7 4 -2 -2 -2 -4 -4 -4 -7 -7 -9 -14 -17 -18 -18 -14 -5
2 4 -1 -3 -4 -3 -3 -4 -5 -5 -3 -4 -3 -2 -3 -4 -2 1 2 4 7 7 7 7 7 7 7 7 6 6 6 7 5 -1 -5 -10 -9 -8 -8 -7 -7 -11 -15 -20 -23 -26 -26 -25 -20
2 1 0 -0 -1 -2 -2 -4 -4 -4 -4 -4 -4 -3 -2 -3 -4 -0 1 1 6 6 7 7 7 7 7 6 6 6 6 4 -2 -8 -12 -13 -11 -9 -10 -13 -16 -18 -21 -25 -28 -29 -30 -30 -29
-1 -1 -2 -2 -2 -3 -3 -2 -3 -3 -4 -4 -4 -4 -3 -3 -3 -1 2 3 4 6 6 6 6 6 6 6 6 5 5 -1 -10 -12 -13 -13 -14 -16 -19 -21 -23 -25 -26 -27 -29 -30 -32 -32 -33
-3 -2 -2 -2 -2 -2 -2 -2 -2 -3 -3 -3 -4 -4 -3 -2 -3 -3 2 3 3 5 5 6 6 5 6 6 5 5 3 -4 -12 -14 -14 -15 -18 -21 -23 -24 -25 -26 -28 -29 -30 -31 -31 -32 -33
-3 -1 -1 -1 -2 -1 -3 -1 -1 -3 -3 -3 -3 -3 -2 -2 -3 -3 -2 3 3 3 5 5 5 5 5 4 4 3 1 -8 -13 -16 -18 -19 -21 -22 -23 -24 -24 -27 -28 -29 -31 -31 -32 -32 -32
-2 -2 2 -2 -3 -3 -2 1 -3 -5 -3 -4 -4 -3 -2 -2 -2 -3 -3 0 4 4 3 4 4 4 4 4 3 2 -3 -10 -14 -17 -18 -20 -22 -23 -24 -24 -25 -27 -29 -30 -31 -31 -32 -32 -32
-2 -0 -1 -2 -4 -1 -1 -1 -5 -6 -7 -7 -5 -4 -3 -3 -2 -3 -3 -3 2 3 3 3 3 3 3 2 1 -0 -7 -12 -15 -17 -19 -21 -22 -23 -24 -25 -26 -28 -29 -30 -31 -32 -29 -29 -29
1 -2 -3 -2 -4 -4 -0 -1 -4 -6 -8 -8 -9 -9 -5 -3 -3 -3 -3 -4 -1 1 2 2 1 2 1 1 -1 -5 -9 -13 -16 -18 -20 -22 -23 -24 -25 -26 -27 -29 -29 -31 -31 -32 -31 -27 -22
-4 -3 -2 -5 -5 -4 -4 -4 -5 -6 -6 -6 -6 -7 -6 -4 -3 -3 -4 -4 -4 -1 -0 0 -0 -1 -2 -3 -4 -6 -10 -15 -17 -19 -21 -22 -24 -25 -26 -27 -28 -29 -29 -29 -29 -29 -30 -29 -25
-3 -2 -3 -4 -5 -6 -6 -4 -5 -5 -6 -8 -7 -6 -7 -7 -3 -3 -4 -5 -5 -4 -2 -2 -2 -3 -4 -4 -4 -8 -12 -16 -16 -18 -20 -22 -23 -24 -25 -27 -28 -29 -30 -30 -30 -27 -26 -27 -21
-2 -2 -2 -4 -5 -6 -6 -4 -5 -8 -8 -7 -6 -5 -5 -6 -6 -4 -4 -5 -5 -5 -4 -4 -5 -6 -6 -6 -8 -13 -14 -14 -16 -16 -20 -22 -23 -24 -25 -26 -27 -28 -29 -30 -30 -30 -27 -24 -25
-6 -9 -6 -5 -4 -1 -7 -1 -6 -6 -5 -4 -5 -5 -5 -5 -5 -4 -4 -5 -5 -5 -6 -6 -6 -7 -8 -9 -11 -12 -13 -14 -15 -17 -20 -21 -23 -25 -26 -27 -28 -28 -28 -29 -29 -28 -27 -25 -23
-7 -10 -9 -8 -6 -5 -4 -2 -5 -6 -1 -2 -4 -5 -5 -5 -5 -5 -5 -5 -5 -5 -6 -7 -8 -8 -9 -10 -11 -12 -13 -14 -14 -17 -19 -21 -23 -25 -26 -27 -28 -28 -29 -29 -29 -28 -27 -24 -22
-13 -10 -9 -9 -6 -0 -4 -4 0 1 -0 -2 -4 -4 -5 -6 -6 -5 -5 -5 -5 -6 -6 -7 -8 -8 -9 -10 -11 -12 -13 -13 -14 -16 -18 -21 -23 -24 -26 -27 -28 -28 -28 -28 -28 -28 -28 -27 -26
-12 -6 2 2 1 1 -6 -3 1 -1 -2 -3 -4 -5 -6 -5 -6 -6 -6 -6 -6 -6 -7 -8 -8 -9 -10 -10 -11 -12 -12 -14 -15 -16 -18 -21 -22 -24 -26 -27 -27 -28 -28 -28 -28 -28 -27 -27 -27
-9 -6 2 4 3 2 -2 0 1 -4 -4 -7 -6 -5 -5 -6 -5 -6 -6 -6 -6 -6 -7 -8 -8 -9 -10 -10 -12 -12 -13 -14 -15 -17 -19 -20 -23 -24 -18 -16 -24 -27 -28 -28 -27 -27 -26 -26 -26
-7 -5 -4 1 -1 0 -2 -0 -3 -4 -4 -4 -5 -4 -5 -5 -6 -6 -6 -6 -7 -7 -7 -8 -8 -9 -10 -11 -12 -12 -13 -15 -17 -18 -20 -23 -16 -11 -15 -10 -6 -7 -9 -14 -22 -22 -21 -23 -25
-4 -6 -0 -0 -1 -1 -3 -2 -1 -3 -4 -4 -4 -3 -4 -5 -6 -7 -7 -6 -7 -7 -7 -8 -8 -9 -10 -11 -12 -13 -14 -17 -19 -19 -18 -15 -11 -12 -13 -12 -18 -19 -16 -17 -20 -25 -25 -24 -24
-4 -2 -3 -1 -1 -3 -3 -3 -1 -4 -4 -3 -3 -5 -6 -7 -6 -7 -7 -7 -7 -7 -7 -8 -8 -9 -10 -11 -12 -14 -17 -19 -15 -11 -8 -7 -9 -7 -7 -8 -10 -14 -18 -22 -25 -25 -24 -24 -23
-5 -3 -2 -1 -3 0 -0 -3 -2 -1 -2 -2 -2 -6 -8 -8 -8 -7 -8 -8 -8 -7 -7 -7 -9 -9 -10 -11 -13 -15 -18 -20 -18 -13 -8 -7 -8 -11 -16 -23 -25 -24 -24 -25 -24 -24 -23 -23 -22
Wind_Speed
6 8 8 5 2 4 6 8 10 11 1 5 8 9 5 9 3 4 22 17 17 17 31 28 25 23 22 19 19 17 17 17 17 15 14 14 15 16 17 17 17 17 15 15 14 14 9 5 6
7 3 6 6 3 6 7 14 14 8 9 8 6 6 5 4 4 11 16 19 18 18 30 27 26 25 23 19 17 18 17 15 14 14 14 13 14 13 15 16 17 16 16 16 13 8 4 3 8
12 10 6 4 4 11 6 7 5 7 8 5 3 0 5 3 2 9 9 22 23 23 29 27 27 24 22 17 17 16 15 12 11 11 12 12 12 12 12 10 7 5 8 9 10 10 9 4 5
8 6 7 4 13 11 16 12 6 5 4 3 3 2 4 9 9 10 13 24 24 24 26 25 25 26 21 20 18 14 13 12 11 10 10 10 10 10 9 8 6 5 6 6 6 9 8 7 6
12 7 5 7 16 15 16 19 14 7 5 10 8 4 5 8 11 8 18 25 23 21 26 26 24 26 22 19 16 14 13 12 12 13 11 11 11 11 10 8 9 8 7 8 7 6 7 6 6
8 6 5 12 16 17 16 28 26 7 9 7 12 8 6 7 11 12 18 21 18 27 28 25 22 23 24 18 17 15 15 15 18 15 15 15 14 13 12 11 9 7 7 6 8 8 7 6 5
10 5 8 11 15 14 12 18 8 7 7 12 11 5 6 11 13 16 18 22 21 29 29 26 23 20 20 21 20 19 21 20 20 19 18 16 14 13 12 10 9 8 6 6 7 7 7 8 8
9 4 10 14 15 21 16 4 3 6 3 5 14 3 6 14 17 18 20 24 23 29 28 26 25 24 23 24 24 24 25 24 23 16 10 10 10 9 7 6 5 4 3 5 6 6 6 8 9
11 4 10 21 14 20 18 3 7 5 3 1 4 1 7 13 18 22 22 20 26 29 28 28 28 29 28 28 29 29 28 23 15 10 13 14 12 9 8 7 6 4 3 3 3 6 7 8 11
10 7 13 10 12 8 11 1 3 4 5 9 9 6 10 13 20 22 23 23 31 32 31 31 30 30 29 28 27 22 17 16 11 13 15 13 10 9 7 6 5 6 6 5 5 5 6 9 10
14 15 14 18 19 9 8 9 14 5 6 18 14 24 19 18 21 22 20 22 30 33 33 34 33 32 31 28 24 20 15 16 17 18 15 12 11 10 9 8 7 7 7 5 5 6 7 7 9
13 20 22 23 29 23 7 11 13 18 20 17 20 2 22 22 24 25 24 23 32 33 34 34 34 33 30 27 24 21 17 16 17 16 14 12 11 10 9 7 7 7 6 5 5 5 5 7 9
18 19 23 23 19 23 16 15 16 14 29 18 19 15 18 22 21 23 22 22 30 36 35 34 33 32 31 28 25 19 17 18 17 16 15 13 11 10 9 8 7 6 6 6 6 5 6 8 8
11 22 18 23 21 25 12 12 16 19 24 25 26 19 21 22 23 22 26 26 28 35 38 37 34 33 30 27 23 21 20 18 17 15 14 13 11 10 10 9 8 6 5 4 5 5 6 7 8
19 10 9 9 15 11 8 10 11 30 27 24 20 22 21 20 21 26 27 30 30 29 38 38 36 35 31 28 23 21 20 18 16 15 15 14 12 11 11 10 9 7 7 6 6 6 6 6 7
5 6 8 8 19 16 14 9 10 20 23 18 17 17 19 20 21 24 26 30 30 28 31 38 38 35 32 28 26 24 22 19 18 17 17 15 14 13 12 10 9 8 8 7 6 7 6 6 7
9 7 13 14 14 6 8 4 7 6 8 7 10 13 19 18 21 22 25 28 32 31 30 34 38 37 34 31 29 25 22 21 19 18 17 15 14 13 11 9 9 8 7 7 7 6 6 6 6
8 14 14 12 6 7 8 9 9 14 6 10 12 13 19 22 24 24 24 27 31 33 33 32 33 35 35 33 30 26 23 20 18 17 16 15 14 12 11 10 9 9 9 8 8 8 7 6 6
14 15 15 11 3 6 9 9 9 12 16 14 15 11 22 12 16 19 23 25 29 31 33 34 34 32 33 33 31 28 24 20 19 18 16 15 13 11 10 9 7 6 5 5 5 5 7 7 8
16 15 16 9 10 3 6 10 9 9 1 13 16 16 11 10 14 18 22 23 25 30 32 32 31 31 33 31 28 25 23 20 19 17 16 16 14 12 11 9 8 7 6 5 5 5 4 5 8
10 9 7 8 5 3 3 8 14 4 17 19 20 14 11 9 7 19 20 21 23 26 29 29 29 31 30 27 26 24 23 22 21 19 18 16 15 12 9 8 7 7 6 6 5 5 4 5 5
7 6 4 4 3 2 3 5 3 7 11 12 14 13 11 12 12 13 15 17 20 23 23 26 26 27 25 25 26 28 28 26 22 20 18 16 14 12 10 9 8 7 5 5 5 5 5 5 6
3 5 5 4 2 5 4 3 5 14 6 5 5 11 10 8 8 8 10 14 17 19 23 24 25 26 24 26 26 27 24 22 20 20 18 17 15 13 11 9 7 6 5 4 5 5 6 6 4
3 0 3 2 3 3 8 10 3 2 2 3 8 10 10 10 9 9 11 11 15 17 21 25 26 25 25 26 26 24 22 22 22 21 19 18 16 14 11 9 7 6 5 4 4 4 4 4 3
3 3 1 1 0 5 4 5 1 4 3 5 5 8 9 10 8 9 9 11 14 18 21 23 25 26 27 28 25 22 22 21 21 19 19 19 16 14 12 10 8 7 5 5 5 4 4 4 3
6 1 3 4 4 2 4 4 3 2 6 7 8 9 7 8 7 6 7 9 13 15 19 22 24 25 27 24 21 21 23 21 19 19 17 14 12 12 10 7 6 5 3 3 3 3 2 2 2
1 2 2 2 4 1 4 3 4 3 3 6 9 12 9 6 5 5 5 5 7 15 18 21 21 23 24 24 24 24 23 19 18 17 15 15 12 8 9 5 7 8 7 6 4 4 4 4 4
2 4 1 1 2 4 4 2 4 4 4 3 4 11 9 6 3 4 6 7 5 8 18 20 20 24 22 25 27 25 22 20 18 16 14 11 9 9 8 8 7 5 5 5 6 7 6 6 6
1 2 1 2 3 3 1 4 4 6 6 8 3 7 7 5 5 2 3 7 10 10 12 20 21 23 25 27 27 23 20 19 17 16 12 11 12 11 8 9 9 11 11 9 8 7 7 7 8
2 2 2 3 3 2 1 4 3 7 6 8 7 8 6 5 5 6 5 4 4 7 11 17 23 22 24 26 24 22 21 22 20 15 16 12 8 10 12 12 12 11 9 8 7 8 9 9 9
Wind_Direction
198 147 108 184 227 224 251 238 243 266 125 29 28 31 340 12 339 172 153 180 176 183 172 174 169 170 172 172 171 156 167 164 161 155 151 142 134 130 131 132 128 125 121 118 123 134 123 133 129
153 141 198 255 229 237 240 231 241 252 94 79 51 353 351 68 59 150 157 156 168 168 168 175 174 177 179 185 181 172 169 168 166 163 163 152 154 157 156 159 157 148 137 127 119 130 128 125 144
154 182 231 207 217 234 246 267 66 84 79 98 116 154 316 105 88 157 156 159 167 161 171 174 181 181 183 179 166 168 181 173 163 153 162 166 174 183 190 182 178 140 141 147 148 156 163 205 140
153 193 266 255 249 242 234 262 116 94 69 154 202 253 167 154 168 207 162 159 187 180 164 176 183 186 179 174 171 160 192 185 157 173 187 190 196 203 198 194 203 182 166 158 169 182 180 216 159
190 236 230 230 247 262 280 286 164 168 183 163 190 224 135 188 206 196 162 169 197 176 161 179 186 186 178 178 179 166 193 190 160 161 188 196 203 207 210 209 199 194 195 180 177 193 189 196 195
203 240 223 229 247 247 243 245 257 187 212 235 170 260 145 214 200 190 177 177 186 167 173 178 185 190 193 183 190 174 162 162 155 175 192 197 196 197 199 197 198 198 181 182 182 193 197 183 172
234 228 240 255 260 271 277 302 319 179 223 223 191 198 160 191 182 188 179 176 176 172 172 178 182 183 189 194 184 172 158 158 166 197 207 205 204 200 197 202 202 190 185 168 173 181 179 178 177
228 249 260 249 249 262 267 329 23 23 343 251 202 226 169 197 184 185 190 188 177 178 183 183 187 188 189 171 179 169 166 174 203 222 242 220 200 199 205 207 216 224 210 184 171 165 176 175 183
232 246 231 237 238 261 262 183 135 164 231 284 220 177 178 180 183 190 198 190 174 180 186 190 191 188 196 194 184 186 179 205 215 215 204 203 201 201 206 211 229 238 233 238 221 194 187 186 182
212 224 241 260 258 278 323 239 245 151 192 229 176 213 213 195 187 200 203 190 180 184 186 191 201 195 200 206 204 207 225 217 202 185 193 201 199 189 193 210 220 244 254 235 227 232 218 207 195
216 236 235 254 277 313 310 301 289 230 245 247 214 212 216 207 195 207 208 199 187 189 190 198 203 204 205 207 209 214 240 227 204 197 198 193 196 200 204 213 222 223 222 218 211 205 211 213 214
240 224 236 258 274 287 271 276 260 260 240 240 272 202 222 208 208 206 210 201 192 192 194 195 206 212 210 211 209 220 226 213 203 196 199 202 206 211 215 211 212 217 215 202 193 195 200 207 208
229 238 250 258 253 257 269 268 250 269 256 264 252 240 219 214 215 207 212 208 200 194 198 203 204 207 210 207 213 216 218 209 202 202 202 203 206 204 204 209 211 208 209 211 207 195 198 195 201
245 231 257 248 259 266 243 253 258 254 261 257 252 231 216 213 215 207 200 201 210 198 200 204 205 207 207 208 215 213 212 211 206 201 205 206 203 200 199 202 206 208 210 217 217 209 198 200 200
289 279 293 245 257 257 262 259 245 254 250 262 257 224 205 223 215 216 207 199 211 204 201 204 205 208 208 213 209 216 214 210 207 201 200 201 200 200 201 205 203 202 205 205 207 212 212 209 204
289 279 259 232 233 237 192 250 280 278 234 241 250 203 209 211 220 213 210 199 198 210 201 204 205 209 212 211 212 215 211 208 204 201 200 199 199 200 203 205 203 203 203 202 206 204 205 209 210
231 249 234 247 239 129 170 221 275 160 169 224 209 222 217 218 210 205 207 201 195 197 202 201 208 211 212 212 212 210 206 205 204 203 200 198 198 200 199 195 195 194 199 205 204 206 202 194 192
214 233 236 241 181 171 188 243 270 265 224 224 233 235 207 201 208 201 201 199 195 198 200 203 203 205 208 209 206 202 202 202 202 201 199 195 195 195 193 190 188 189 190 191 195 188 193 197 167
267 279 281 292 163 155 211 234 240 249 257 251 242 52 77 89 192 189 189 196 195 196 201 204 204 202 203 201 199 200 200 198 197 200 198 194 191 192 192 189 188 185 172 170 175 184 181 183 184
263 261 253 275 275 179 233 258 257 254 346 66 60 49 45 95 134 170 183 192 196 192 199 202 205 201 203 205 203 203 199 193 199 195 190 188 188 190 191 189 184 178 177 173 170 173 157 156 179
253 260 271 251 354 235 260 281 246 47 91 64 53 48 41 39 64 161 176 188 187 190 197 201 200 198 203 202 197 191 190 192 195 191 190 187 185 186 184 185 182 188 185 180 175 181 190 156 166
242 5 30 50 56 229 63 280 340 135 83 54 42 43 40 57 83 135 161 174 185 188 190 192 194 195 198 195 194 196 195 194 193 193 188 185 181 184 184 187 184 179 183 168 165 159 174 188 168
96 28 45 39 310 324 215 244 249 134 76 43 53 58 57 71 98 125 154 172 180 187 191 191 192 193 189 184 195 198 196 194 188 187 186 185 182 182 184 182 178 179 178 170 169 165 165 184 181
100 239 173 129 172 250 196 195 279 75 135 100 82 72 76 81 101 134 156 168 176 182 185 188 190 193 184 188 190 198 192 188 186 190 187 184 182 179 179 179 177 174 170 169 164 167 168 174 185
189 194 222 250 190 239 15 190 176 118 76 124 114 71 69 92 88 107 139 165 176 184 184 187 194 192 187 194 193 188 185 194 194 190 186 183 180 174 170 168 166 166 166 167 175 178 177 180 199
191 198 197 239 179 190 342 237 234 102 107 101 85 82 77 82 88 104 141 162 177 184 189 190 196 194 194 196 184 180 190 196 192 191 186 177 165 154 152 151 144 134 145 171 181 184 205 238 259
127 202 54 320 212 4 205 87 25 132 97 96 98 105 97 86 102 131 130 152 181 190 188 192 195 193 196 186 180 187 195 194 187 179 174 166 164 171 171 201 235 229 237 243 237 251 262 263 264
23 336 109 277 220 232 268 197 178 169 168 138 107 119 112 98 108 117 144 152 180 184 191 190 197 196 194 184 189 195 195 189 174 168 168 176 196 200 203 217 213 214 232 252 270 277 281 285 287
118 199 302 93 138 200 306 283 331 190 163 139 130 95 88 82 108 122 118 162 175 183 187 192 194 197 192 190 196 199 193 188 184 184 210 210 208 213 213 212 217 229 229 230 240 255 266 269 270
68 335 80 149 293 66 184 275 6 84 107 111 93 69 84 94 92 120 146 146 149 166 182 192 199 202 202 199 200 195 188 177 174 202 214 204 201 219 226 227 224 222 226 230 242 257 266 269 267
Height
1494 1496 1497 1500 1507 1498 1495 1485 1471 1469 1463 1465 1468 1470 1474 1473 1476 1490 1488 1490 1491 1492 1497 1502 1506 1509 1512 1513 1517 1518 1521 1523 1525 1528 1530 1531 1533 1534 1535 1538 1539 1539 1540 1543 1545 1549 1550 1551 1551
1492 1495 1499 1497 1503 1501 1488 1470 1469 1462 1464 1466 1469 1472 1474 1478 1478 1481 1486 1488 1491 1492 1497 1501 1505 1508 1511 1513 1516 1518 1521 1523 1525 1528 1530 1533 1533 1535 1537 1538 1540 1540 1543 1545 1547 1550 1551 1552 1552
1491 1496 1497 1493 1492 1492 1483 1462 1462 1465 1465 1468 1473 1475 1476 1479 1479 1480 1482 1486 1490 1492 1496 1500 1504 1507 1510 1514 1516 1518 1520 1523 1525 1528 1529 1532 1533 1535 1537 1538 1540 1542 1544 1547 1548 1549 1552 1553 1554
1491 1495 1495 1491 1484 1472 1470 1462 1460 1463 1467 1469 1472 1475 1476 1477 1478 1477 1482 1485 1486 1489 1494 1499 1503 1506 1510 1513 1515 1517 1519 1523 1525 1527 1529 1531 1532 1535 1537 1539 1541 1542 1544 1546 1548 1550 1551 1553 1554
1490 1490 1491 1487 1480 1471 1462 1459 1459 1460 1464 1468 1472 1473 1474 1476 1477 1478 1481 1484 1484 1489 1494 1499 1502 1506 1509 1512 1515 1517 1519 1521 1524 1526 1528 1530 1531 1534 1536 1537 1540 1541 1544 1545 1547 1550 1552 1552 1554
1488 1483 1484 1484 1474 1463 1457 1454 1453 1454 1460 1465 1469 1472 1474 1475 1476 1477 1480 1483 1485 1489 1493 1498 1503 1506 1509 1511 1514 1516 1518 1521 1522 1524 1526 1528 1530 1532 1534 1536 1538 1540 1542 1544 1546 1549 1551 1552 1554
1482 1481 1479 1474 1466 1458 1451 1449 1450 1449 1456 1461 1464 1467 1471 1473 1475 1476 1479 1482 1484 1489 1492 1497 1501 1505 1507 1510 1513 1515 1516 1518 1520 1522 1524 1527 1530 1532 1535 1536 1538 1539 1542 1543 1546 1549 1549 1550 1553
1478 1479 1474 1467 1463 1459 1452 1450 1450 1453 1456 1459 1462 1464 1469 1468 1472 1474 1476 1478 1482 1488 1492 1496 1499 1502 1505 1508 1510 1512 1513 1515 1517 1522 1525 1528 1530 1532 1535 1537 1540 1540 1541 1544 1545 1546 1548 1549 1551
1477 1476 1470 1459 1461 1454 1449 1449 1450 1453 1457 1460 1461 1462 1463 1465 1469 1471 1472 1477 1482 1487 1491 1494 1496 1498 1502 1504 1506 1508 1510 1514 1519 1522 1524 1526 1528 1531 1533 1535 1537 1539 1541 1543 1544 1545 1546 1548 1550
1472 1471 1461 1453 1450 1447 1447 1449 1450 1453 1455 1457 1459 1461 1462 1464 1467 1468 1469 1473 1478 1484 1488 1491 1494 1496 1499 1503 1507 1512 1514 1516 1517 1520 1521 1524 1527 1529 1531 1533 1534 1537 1538 1541 1543 1544 1547 1548 1548
1460 1459 1451 1450 1446 1448 1447 1448 1450 1450 1452 1452 1455 1454 1457 1460 1463 1465 1468 1472 1476 1480 1485 1487 1490 1494 1496 1501 1507 1510 1513 1514 1515 1517 1520 1522 1524 1526 1528 1531 1533 1535 1537 1538 1540 1543 1545 1546 1547
1454 1449 1449 1449 1448 1447 1447 1447 1445 1446 1446 1448 1449 1452 1453 1454 1457 1460 1463 1466 1472 1477 1482 1484 1487 1491 1496 1500 1504 1508 1511 1512 1514 1516 1518 1521 1523 1525 1527 1528 1530 1532 1534 1536 1538 1540 1541 1542 1545
1445 1443 1444 1444 1443 1443 1444 1444 1443 1442 1440 1444 1447 1445 1448 1452 1455 1458 1461 1465 1467 1472 1478 1482 1485 1488 1493 1497 1501 1505 1508 1510 1513 1515 1517 1519 1521 1523 1525 1527 1529 1531 1532 1534 1535 1537 1540 1542 1544
1435 1437 1437 1438 1439 1441 1440 1439 1441 1437 1439 1440 1442 1440 1442 1446 1449 1454 1458 1461 1463 1469 1473 1477 1483 1486 1491 1494 1499 1502 1504 1508 1511 1514 1516 1518 1520 1522 1524 1526 1528 1530 1532 1533 1534 1536 1538 1540 1542
1437 1437 1435 1434 1435 1437 1437 1437 1433 1431 1434 1435 1436 1437 1439 1442 1446 1448 1453 1457 1458 1464 1469 1474 1479 1483 1488 1492 1496 1500 1503 1506 1509 1512 1515 1517 1519 1521 1523 1525 1527 1529 1530 1532 1533 1535 1536 1537 1539
1442 1438 1445 1429 1425 1426 1435 1435 1427 1426 1427 1429 1432 1434 1436 1440 1442 1446 1450 1454 1457 1460 1465 1471 1475 1480 1484 1489 1492 1497 1500 1504 1507 1510 1512 1515 1517 1519 1521 1523 1525 1527 1529 1530 1532 1534 1535 1536 1537
1440 1440 1434 1430 1420 1424 1429 1431 1424 1423 1425 1427 1429 1431 1434 1437 1441 1444 1447 1452 1456 1458 1461 1467 1471 1476 1481 1486 1489 1495 1498 1501 1504 1507 1510 1513 1515 1517 1520 1522 1523 1525 1528 1529 1531 1532 1534 1535 1536
1438 1431 1425 1424 1418 1420 1429 1429 1424 1423 1424 1425 1427 1428 1429 1431 1434 1441 1445 1449 1454 1458 1461 1465 1469 1474 1477 1482 1487 1492 1495 1499 1502 1505 1508 1511 1513 1515 1517 1519 1522 1523 1525 1527 1529 1530 1532 1534 1536
1422 1420 1421 1416 1414 1419 1424 1423 1422 1420 1420 1421 1423 1427 1428 1431 1434 1439 1443 1447 1451 1456 1459 1463 1466 1471 1475 1479 1483 1488 1492 1497 1499 1503 1506 1510 1512 1514 1516 1518 1520 1522 1523 1525 1528 1529 1531 1533 1534
1421 1420 1416 1416 1412 1415 1417 1419 1416 1415 1419 1424 1426 1429 1432 1433 1436 1439 1443 1446 1450 1454 1456 1460 1465 1470 1473 1479 1484 1488 1492 1495 1498 1501 1505 1508 1510 1513 1515 1517 1519 1521 1523 1525 1527 1528 1530 1532 1534
1418 1422 1419 1420 1420 1415 1420 1422 1412 1417 1420 1425 1430 1433 1435 1436 1437 1438 1442 1446 1450 1454 1456 1459 1464 1468 1474 1479 1483 1486 1490 1492 1497 1500 1503 1505 1508 1511 1513 1516 1518 1519 1522 1524 1526 1528 1530 1531 1534
1421 1423 1420 1420 1425 1431 1417 1438 1411 1419 1427 1432 1435 1437 1437 1437 1439 1442 1444 1446 1450 1454 1457 1460 1464 1468 1473 1478 1482 1483 1486 1489 1494 1498 1502 1504 1507 1510 1513 1515 1516 1518 1520 1522 1524 1526 1528 1530 1532
1422 1426 1426 1426 1430 1433 1426 1440 1414 1414 1431 1440 1440 1441 1441 1440 1441 1444 1446 1449 1452 1454 1457 1460 1464 1468 1473 1477 1481 1484 1487 1490 1493 1496 1500 1503 1506 1509 1512 1514 1516 1517 1519 1521 1523 1526 1528 1529 1531
1428 1428 1429 1430 1435 1450 1423 1422 1424 1431 1435 1441 1441 1443 1444 1444 1444 1445 1447 1450 1452 1454 1457 1460 1463 1468 1473 1477 1480 1484 1487 1490 1492 1495 1498 1502 1506 1508 1511 1513 1515 1517 1519 1521 1523 1525 1527 1529 1530
1428 1428 1432 1437 1447 1427 1413 1423 1433 1435 1435 1437 1441 1442 1444 1445 1446 1446 1448 1450 1452 1454 1457 1459 1463 1467 1472 1475 1479 1483 1486 1489 1492 1495 1498 1501 1504 1507 1510 1512 1514 1516 1518 1520 1522 1523 1525 1527 1529
1425 1422 1426 1427 1429 1427 1424 1434 1427 1437 1437 1437 1439 1442 1445 1446 1447 1448 1449 1450 1452 1455 1458 1460 1463 1467 1471 1475 1480 1483 1485 1488 1491 1495 1498 1501 1505 1508 1511 1512 1514 1516 1518 1520 1521 1523 1524 1526 1527
1422 1427 1426 1433 1423 1435 1418 1435 1440 1439 1440 1440 1441 1443 1446 1447 1447 1448 1449 1450 1452 1454 1456 1460 1463 1466 1470 1475 1479 1482 1485 1488 1491 1495 1499 1502 1505 1507 1511 1512 1513 1515 1517 1519 1520 1522 1523 1524 1525
1428 1429 1436 1437 1452 1441 1428 1420 1441 1445 1445 1444 1444 1443 1445 1447 1448 1448 1448 1450 1451 1453 1457 1459 1462 1465 1469 1473 1477 1480 1484 1488 1491 1495 1498 1502 1504 1507 1510 1512 1513 1513 1515 1516 1518 1520 1521 1522 1523
1431 1431 1432 1440 1447 1465 1458 1452 1438 1441 1441 1442 1442 1442 1443 1445 1448 1448 1448 1450 1452 1453 1455 1459 1462 1464 1466 1471 1475 1480 1483 1487 1490 1494 1496 1500 1503 1505 1509 1511 1511 1513 1514 1514 1516 1519 1520 1521 1522
1427 1432 1433 1446 1450 1441 1448 1455 1440 1438 1440 1442 1442 1443 1446 1446 1446 1447 1450 1450 1451 1453 1454 1457 1460 1462 1466 1470 1475 1478 1482 1486 1489 1492 1497 1498 1501 1505 1507 1509 1510 1511 1512 1512 1513 1516 1518 1520 1521